Time,TemperatureF,DewpointF,PressureIn,WindDirection,WindDirectionDegrees,WindSpeedMPH,WindSpeedGustMPH,Humidity,HourlyPrecipIn,Conditions,Clouds,dailyrainin,SoftwareType,DateUTC
2013-04-30 00:02:00,63.0,53.0,29.71,SSW,192,3.0,4.0,71,0.00,,,0.01,,2013-04-30 05:02:00,
2013-04-30 00:12:00,63.0,53.0,29.71,SSW,192,3.0,4.0,71,0.00,,,0.01,,2013-04-30 05:12:00,
2013-04-30 00:22:00,63.0,53.0,29.71,SSW,192,3.0,4.0,71,0.00,,,0.01,,2013-04-30 05:22:00,
2013-04-30 00:31:00,64.0,55.0,29.70,SE,136,3.0,6.0,72,0.00,,,0.01,,2013-04-30 05:31:00,
2013-04-30 00:42:00,64.0,55.0,29.70,SE,136,3.0,6.0,72,0.00,,,0.01,,2013-04-30 05:42:00,
2013-04-30 00:51:00,64.0,55.0,29.70,SE,131,2.0,5.0,72,0.00,,,0.01,,2013-04-30 05:51:00,
2013-04-30 01:02:00,64.0,55.0,29.70,SSW,205,2.0,7.0,72,0.00,,,0.01,,2013-04-30 06:02:00,
2013-04-30 01:12:00,63.0,54.0,29.70,SSW,192,3.0,10.0,73,0.00,,,0.01,,2013-04-30 06:12:00,
2013-04-30 01:21:00,63.0,54.0,29.70,SSW,192,3.0,10.0,73,0.00,,,0.01,,2013-04-30 06:21:00,
2013-04-30 01:31:00,63.0,54.0,29.70,SSW,192,3.0,10.0,73,0.00,,,0.01,,2013-04-30 06:31:00,
2013-04-30 01:41:00,63.0,54.0,29.70,SSW,192,3.0,10.0,73,0.00,,,0.01,,2013-04-30 06:41:00,
2013-04-30 01:52:00,63.0,54.0,29.68,SSE,157,1.0,3.0,73,0.00,,,0.01,,2013-04-30 06:52:00,
2013-04-30 02:01:00,63.0,55.0,29.68,West,267,3.0,6.0,74,0.00,,,0.01,,2013-04-30 07:01:00,
2013-04-30 02:11:00,63.0,55.0,29.68,West,267,3.0,6.0,74,0.00,,,0.01,,2013-04-30 07:11:00,
2013-04-30 02:21:00,62.0,54.0,29.68,NNW,338,2.0,5.0,75,0.00,,,0.01,,2013-04-30 07:21:00,
2013-04-30 02:31:00,62.0,54.0,29.68,SSW,207,4.0,7.0,75,0.00,,,0.01,,2013-04-30 07:31:00,
2013-04-30 02:41:00,62.0,54.0,29.68,SSW,207,4.0,7.0,75,0.00,,,0.01,,2013-04-30 07:41:00,
2013-04-30 02:52:00,62.0,54.0,29.67,SSW,205,2.0,5.0,75,0.00,,,0.01,,2013-04-30 07:52:00,
2013-04-30 03:02:00,62.0,54.0,29.66,South,171,4.0,5.0,75,0.00,,,0.01,,2013-04-30 08:02:00,
2013-04-30 03:11:00,62.0,54.0,29.66,South,171,4.0,5.0,75,0.00,,,0.01,,2013-04-30 08:11:00,
2013-04-30 03:21:00,62.0,54.0,29.66,SSW,206,3.0,6.0,75,0.00,,,0.01,,2013-04-30 08:21:00,
2013-04-30 03:32:00,62.0,54.0,29.66,SSW,206,3.0,6.0,75,0.00,,,0.01,,2013-04-30 08:32:00,
2013-04-30 03:42:00,62.0,54.0,29.66,SSW,206,3.0,6.0,75,0.00,,,0.01,,2013-04-30 08:42:00,
2013-04-30 03:52:00,62.0,54.0,29.67,SW,220,3.0,5.0,76,0.00,,,0.01,,2013-04-30 08:52:00,
2013-04-30 04:01:00,62.0,54.0,29.67,South,185,5.0,6.0,76,0.00,,,0.01,,2013-04-30 09:01:00,
2013-04-30 04:11:00,62.0,54.0,29.67,South,185,5.0,6.0,76,0.00,,,0.01,,2013-04-30 09:11:00,
2013-04-30 04:22:00,62.0,55.0,29.67,SW,223,6.0,9.0,77,0.00,,,0.01,,2013-04-30 09:22:00,
2013-04-30 04:33:00,62.0,54.0,29.67,SW,234,7.0,8.0,76,0.00,,,0.01,,2013-04-30 09:33:00,
2013-04-30 04:43:00,62.0,54.0,29.67,SW,234,7.0,8.0,76,0.00,,,0.01,,2013-04-30 09:43:00,
2013-04-30 04:52:00,62.0,55.0,29.67,SW,225,4.0,8.0,77,0.00,,,0.01,,2013-04-30 09:52:00,
2013-04-30 05:03:00,62.0,55.0,29.67,SW,217,4.0,12.0,77,0.00,,,0.01,,2013-04-30 10:03:00,
2013-04-30 05:11:00,62.0,55.0,29.67,SW,217,4.0,12.0,77,0.00,,,0.01,,2013-04-30 10:11:00,
2013-04-30 05:22:00,62.0,55.0,29.67,WSW,246,7.0,9.0,78,0.00,,,0.01,,2013-04-30 10:22:00,
2013-04-30 05:32:00,62.0,55.0,29.67,SSW,205,6.0,6.0,79,0.00,,,0.01,,2013-04-30 10:32:00,
2013-04-30 05:41:00,62.0,55.0,29.67,SSW,205,6.0,6.0,79,0.00,,,0.01,,2013-04-30 10:41:00,
2013-04-30 05:52:00,62.0,56.0,29.70,SW,235,5.0,13.0,80,0.00,,,0.01,,2013-04-30 10:52:00,
2013-04-30 06:01:00,62.0,56.0,29.70,SW,235,5.0,13.0,80,0.00,,,0.01,,2013-04-30 11:01:00,
2013-04-30 06:11:00,62.0,56.0,29.70,SW,235,5.0,13.0,80,0.00,,,0.01,,2013-04-30 11:11:00,
2013-04-30 06:21:00,62.0,56.0,29.71,SW,217,9.0,10.0,81,0.00,,,0.01,,2013-04-30 11:21:00,
2013-04-30 06:31:00,61.0,55.0,29.71,WSW,252,10.0,11.0,82,0.00,,,0.01,,2013-04-30 11:31:00,
2013-04-30 06:42:00,61.0,55.0,29.71,WSW,252,10.0,11.0,82,0.00,,,0.01,,2013-04-30 11:42:00,
2013-04-30 06:51:00,60.0,55.0,29.72,WSW,247,5.0,8.0,84,0.00,,,0.01,,2013-04-30 11:51:00,
2013-04-30 07:01:00,60.0,55.0,29.72,WSW,258,10.0,10.0,84,0.00,,,0.01,,2013-04-30 12:01:00,
2013-04-30 07:11:00,60.0,55.0,29.72,WSW,258,10.0,10.0,84,0.00,,,0.01,,2013-04-30 12:11:00,
2013-04-30 07:21:00,60.0,56.0,29.72,WSW,243,4.0,4.0,86,0.00,,,0.01,,2013-04-30 12:21:00,
2013-04-30 07:31:00,60.0,56.0,29.72,WSW,243,4.0,4.0,86,0.00,,,0.01,,2013-04-30 12:31:00,
2013-04-30 07:41:00,60.0,56.0,29.72,WSW,243,4.0,4.0,86,0.00,,,0.01,,2013-04-30 12:41:00,
2013-04-30 07:51:00,60.0,56.0,29.69,SW,225,4.0,6.0,86,0.00,,,0.01,,2013-04-30 12:51:00,
2013-04-30 08:01:00,60.0,56.0,29.69,SSW,206,3.0,5.0,86,0.00,,,0.01,,2013-04-30 13:01:00,
2013-04-30 08:11:00,60.0,56.0,29.69,SSW,206,3.0,5.0,86,0.00,,,0.01,,2013-04-30 13:11:00,
2013-04-30 08:21:00,61.0,57.0,29.70,SW,215,4.0,6.0,86,0.00,,,0.01,,2013-04-30 13:21:00,
2013-04-30 08:31:00,61.0,57.0,29.70,SW,215,4.0,6.0,86,0.00,,,0.01,,2013-04-30 13:31:00,
2013-04-30 08:41:00,61.0,57.0,29.70,SW,215,4.0,6.0,86,0.00,,,0.01,,2013-04-30 13:41:00,
2013-04-30 08:52:00,62.0,57.0,29.70,SW,221,5.0,10.0,84,0.00,,,0.01,,2013-04-30 13:52:00,
2013-04-30 09:02:00,62.0,57.0,29.70,SSW,209,3.0,8.0,83,0.00,,,0.01,,2013-04-30 14:02:00,
2013-04-30 09:11:00,64.0,58.0,29.70,SW,227,6.0,13.0,81,0.00,,,0.01,,2013-04-30 14:11:00,
2013-04-30 09:21:00,64.0,58.0,29.70,SW,227,6.0,13.0,81,0.00,,,0.01,,2013-04-30 14:21:00,
2013-04-30 09:31:00,64.0,58.0,29.70,SW,215,8.0,14.0,80,0.00,,,0.01,,2013-04-30 14:31:00,
2013-04-30 09:41:00,64.0,58.0,29.70,SW,215,8.0,14.0,80,0.00,,,0.01,,2013-04-30 14:41:00,
2013-04-30 09:52:00,67.0,58.0,29.68,SW,223,6.0,11.0,74,0.00,,,0.01,,2013-04-30 14:52:00,
2013-04-30 10:01:00,67.0,58.0,29.68,SW,226,5.0,10.0,73,0.00,,,0.01,,2013-04-30 15:01:00,
2013-04-30 10:11:00,67.0,58.0,29.68,SW,226,5.0,10.0,73,0.00,,,0.01,,2013-04-30 15:11:00,
2013-04-30 10:21:00,68.0,58.0,29.69,SW,232,9.0,9.0,70,0.00,,,0.01,,2013-04-30 15:21:00,
2013-04-30 10:32:00,68.0,58.0,29.69,SW,232,9.0,9.0,70,0.00,,,0.01,,2013-04-30 15:32:00,
2013-04-30 10:42:00,68.0,58.0,29.69,SW,232,9.0,9.0,70,0.00,,,0.01,,2013-04-30 15:42:00,
2013-04-30 10:52:00,69.0,58.0,29.70,SW,234,7.0,14.0,69,0.00,,,0.01,,2013-04-30 15:52:00,
2013-04-30 11:02:00,70.0,58.0,29.70,SW,232,4.0,10.0,65,0.00,,,0.01,,2013-04-30 16:02:00,
2013-04-30 11:12:00,70.0,58.0,29.70,SW,232,4.0,10.0,65,0.00,,,0.01,,2013-04-30 16:12:00,
2013-04-30 11:23:00,70.0,58.0,29.70,SW,219,6.0,12.0,65,0.00,,,0.01,,2013-04-30 16:23:00,
2013-04-30 11:33:00,72.0,58.0,29.69,SW,229,10.0,15.0,61,0.00,,,0.01,,2013-04-30 16:33:00,
2013-04-30 11:42:00,72.0,58.0,29.69,SW,229,10.0,15.0,61,0.00,,,0.01,,2013-04-30 16:42:00,
2013-04-30 11:50:00,73.0,57.0,29.70,SSW,194,3.0,14.0,57,0.00,,,0.01,,2013-04-30 16:50:00,
2013-04-30 11:52:00,72.0,58.0,29.69,SW,229,10.0,15.0,61,0.00,,,0.01,,2013-04-30 16:52:00,
2013-04-30 12:02:00,74.0,58.0,29.70,SW,216,9.0,14.0,57,0.00,,,0.01,,2013-04-30 17:02:00,
2013-04-30 12:12:00,74.0,58.0,29.70,SW,216,9.0,14.0,57,0.00,,,0.01,,2013-04-30 17:12:00,
2013-04-30 12:22:00,73.0,57.0,29.70,SSW,194,3.0,14.0,57,0.00,,,0.01,,2013-04-30 17:22:00,
2013-04-30 12:32:00,73.0,57.0,29.70,SSW,194,3.0,14.0,57,0.00,,,0.01,,2013-04-30 17:32:00,
2013-04-30 12:42:00,73.0,57.0,29.70,SSW,194,3.0,14.0,57,0.00,,,0.01,,2013-04-30 17:42:00,
2013-04-30 13:22:00,78.0,52.0,29.68,WSW,252,12.0,18.0,41,0.00,,,0.01,,2013-04-30 18:22:00,
2013-04-30 13:32:00,79.0,52.0,29.68,WSW,246,9.0,18.0,39,0.00,,,0.01,,2013-04-30 18:32:00,
2013-04-30 13:42:00,79.0,52.0,29.68,WSW,246,9.0,18.0,39,0.00,,,0.01,,2013-04-30 18:42:00,
2013-04-30 13:52:00,80.0,50.0,29.68,WSW,254,18.0,19.0,35,0.00,,,0.01,,2013-04-30 18:52:00,
2013-04-30 14:01:00,80.0,50.0,29.68,WSW,254,18.0,19.0,35,0.00,,,0.01,,2013-04-30 19:01:00,
2013-04-30 14:11:00,80.0,50.0,29.68,WSW,254,18.0,19.0,35,0.00,,,0.01,,2013-04-30 19:11:00,
2013-04-30 14:21:00,81.0,53.0,29.68,SW,234,11.0,15.0,38,0.00,,,0.01,,2013-04-30 19:21:00,
2013-04-30 14:32:00,81.0,50.0,29.67,SW,218,8.0,17.0,34,0.00,,,0.01,,2013-04-30 19:32:00,
2013-04-30 14:42:00,81.0,50.0,29.67,SW,218,8.0,17.0,34,0.00,,,0.01,,2013-04-30 19:42:00,
2013-04-30 14:52:00,81.0,50.0,29.67,SW,218,8.0,17.0,34,0.00,,,0.01,,2013-04-30 19:52:00,
2013-04-30 15:02:00,81.0,45.0,29.68,WSW,242,18.0,27.0,28,0.00,,,0.01,,2013-04-30 20:02:00,
2013-04-30 15:11:00,81.0,45.0,29.68,WSW,242,18.0,27.0,28,0.00,,,0.01,,2013-04-30 20:11:00,
2013-04-30 15:21:00,82.0,46.0,29.68,SSE,157,6.0,18.0,28,0.00,,,0.01,,2013-04-30 20:21:00,
2013-04-30 15:32:00,83.0,47.0,29.68,WSW,248,13.0,24.0,28,0.00,,,0.01,,2013-04-30 20:32:00,
2013-04-30 15:42:00,83.0,47.0,29.68,WSW,248,13.0,24.0,28,0.00,,,0.01,,2013-04-30 20:42:00,
2013-04-30 15:52:00,83.0,47.0,29.68,WSW,248,13.0,24.0,28,0.00,,,0.01,,2013-04-30 20:52:00,
2013-04-30 16:01:00,83.0,47.0,29.68,SW,227,7.0,17.0,28,0.00,,,0.01,,2013-04-30 21:01:00,
2013-04-30 16:11:00,84.0,47.0,29.68,SW,232,17.0,19.0,28,0.00,,,0.01,,2013-04-30 21:11:00,
2013-04-30 16:22:00,84.0,47.0,29.68,SW,232,17.0,19.0,28,0.00,,,0.01,,2013-04-30 21:22:00,
2013-04-30 16:32:00,84.0,46.0,29.68,SW,219,12.0,18.0,27,0.00,,,0.01,,2013-04-30 21:32:00,
2013-04-30 16:42:00,84.0,46.0,29.68,SW,219,12.0,18.0,27,0.00,,,0.01,,2013-04-30 21:42:00,
2013-04-30 16:53:00,84.0,46.0,29.68,SW,219,12.0,18.0,27,0.00,,,0.01,,2013-04-30 21:53:00,
2013-04-30 17:02:00,83.0,47.0,29.70,SW,224,10.0,17.0,28,0.00,,,0.01,,2013-04-30 22:02:00,
2013-04-30 17:12:00,83.0,47.0,29.70,SW,224,10.0,17.0,28,0.00,,,0.01,,2013-04-30 22:12:00,
2013-04-30 17:22:00,83.0,47.0,29.70,WSW,244,10.0,18.0,28,0.00,,,0.01,,2013-04-30 22:22:00,
2013-04-30 17:32:00,83.0,47.0,29.70,SSW,202,10.0,18.0,28,0.00,,,0.00,,2013-04-30 22:32:00,
2013-04-30 17:41:00,83.0,47.0,29.70,SSW,202,10.0,18.0,28,0.00,,,0.00,,2013-04-30 22:41:00,
2013-04-30 17:52:00,83.0,47.0,29.70,WSW,239,17.0,17.0,28,0.00,,,0.00,,2013-04-30 22:52:00,
2013-04-30 18:02:00,83.0,46.0,29.70,WSW,248,13.0,19.0,27,0.00,,,0.00,,2013-04-30 23:02:00,
2013-04-30 18:12:00,83.0,46.0,29.70,WSW,248,13.0,19.0,27,0.00,,,0.00,,2013-04-30 23:12:00,
2013-04-30 18:21:00,83.0,46.0,29.70,SW,235,8.0,12.0,27,0.00,,,0.00,,2013-04-30 23:21:00,
2013-04-30 18:32:00,83.0,47.0,29.71,WSW,240,7.0,14.0,28,0.00,,,0.00,,2013-04-30 23:32:00,
2013-04-30 18:42:00,83.0,47.0,29.71,WSW,240,7.0,14.0,28,0.00,,,0.00,,2013-04-30 23:42:00,
2013-04-30 18:52:00,82.0,47.0,29.73,SW,221,8.0,10.0,30,0.00,,,0.00,,2013-04-30 23:52:00,
2013-04-30 19:02:00,82.0,47.0,29.73,SW,231,6.0,11.0,30,0.00,,,0.00,,2013-05-01 00:02:00,
2013-04-30 19:11:00,82.0,47.0,29.73,SW,231,6.0,11.0,30,0.00,,,0.00,,2013-05-01 00:11:00,
2013-04-30 19:21:00,80.0,47.0,29.74,SSW,213,6.0,10.0,31,0.00,,,0.00,,2013-05-01 00:21:00,
2013-04-30 19:32:00,80.0,47.0,29.74,SSW,213,6.0,10.0,31,0.00,,,0.00,,2013-05-01 00:32:00,
2013-04-30 19:42:00,80.0,47.0,29.74,SSW,213,6.0,10.0,31,0.00,,,0.00,,2013-05-01 00:42:00,
2013-04-30 19:52:00,80.0,52.0,29.75,SW,232,4.0,6.0,38,0.00,,,0.00,,2013-05-01 00:52:00,
2013-04-30 20:01:00,80.0,52.0,29.75,SW,225,3.0,10.0,38,0.00,,,0.00,,2013-05-01 01:01:00,
2013-04-30 20:11:00,80.0,52.0,29.75,SW,225,3.0,10.0,38,0.00,,,0.00,,2013-05-01 01:11:00,
2013-04-30 20:21:00,79.0,50.0,29.77,SW,233,4.0,10.0,37,0.00,,,0.00,,2013-05-01 01:21:00,
2013-04-30 20:31:00,78.0,50.0,29.77,SW,229,2.0,7.0,37,0.00,,,0.00,,2013-05-01 01:31:00,
2013-04-30 20:41:00,78.0,50.0,29.77,SW,229,2.0,7.0,37,0.00,,,0.00,,2013-05-01 01:41:00,
2013-04-30 20:52:00,78.0,50.0,29.77,SW,223,4.0,6.0,38,0.00,,,0.00,,2013-05-01 01:52:00,
2013-04-30 21:02:00,77.0,50.0,29.78,SSW,207,2.0,4.0,39,0.00,,,0.00,,2013-05-01 02:02:00,
2013-04-30 21:11:00,77.0,50.0,29.78,SSW,207,2.0,4.0,39,0.00,,,0.00,,2013-05-01 02:11:00,
2013-04-30 21:21:00,77.0,50.0,29.78,SSW,207,2.0,4.0,39,0.00,,,0.00,,2013-05-01 02:21:00,
2013-04-30 21:32:00,76.0,51.0,29.79,WSW,242,3.0,5.0,42,0.00,,,0.00,,2013-05-01 02:32:00,
2013-04-30 21:42:00,76.0,51.0,29.79,WSW,242,3.0,5.0,42,0.00,,,0.00,,2013-05-01 02:42:00,
2013-04-30 21:52:00,76.0,53.0,29.80,SW,229,9.0,9.0,45,0.00,,,0.00,,2013-05-01 02:52:00,
2013-04-30 22:01:00,75.0,53.0,29.80,WSW,250,5.0,7.0,46,0.00,,,0.00,,2013-05-01 03:01:00,
2013-04-30 22:11:00,75.0,53.0,29.80,WSW,250,5.0,7.0,46,0.00,,,0.00,,2013-05-01 03:11:00,
2013-04-30 22:21:00,75.0,53.0,29.80,SW,215,7.0,10.0,46,0.00,,,0.00,,2013-05-01 03:21:00,
2013-04-30 22:33:00,75.0,53.0,29.80,West,265,3.0,6.0,47,0.00,,,0.00,,2013-05-01 03:33:00,
2013-04-30 22:43:00,75.0,53.0,29.80,West,265,3.0,6.0,47,0.00,,,0.00,,2013-05-01 03:43:00,
2013-04-30 22:53:00,74.0,54.0,29.81,WSW,249,4.0,9.0,49,0.00,,,0.00,,2013-05-01 03:53:00,
2013-04-30 23:03:00,74.0,54.0,29.81,WSW,249,6.0,9.0,49,0.00,,,0.00,,2013-05-01 04:03:00,
2013-04-30 23:12:00,74.0,54.0,29.81,WSW,249,6.0,9.0,49,0.00,,,0.00,,2013-05-01 04:12:00,
2013-04-30 23:22:00,74.0,54.0,29.82,SW,215,6.0,11.0,49,0.00,,,0.00,,2013-05-01 04:22:00,
2013-04-30 23:32:00,74.0,54.0,29.82,SW,215,6.0,11.0,49,0.00,,,0.00,,2013-05-01 04:32:00,
2013-04-30 23:42:00,74.0,54.0,29.82,SW,215,6.0,11.0,49,0.00,,,0.00,,2013-05-01 04:42:00,
2013-04-30 23:52:00,73.0,53.0,29.83,SSW,200,4.0,10.0,50,0.00,,,0.00,,2013-05-01 04:52:00,